[[{"header":{"parameterUnit":"m.s-1","parameterCategory":1,"la1":30.2991,"la2":30.254,"lo1":-89.0895,"lo2":-89.0444,"dy":0.0017,"dx":0.0017,"nx":28,"ny":28,"refTime":"2025-11-22T03:00:00:Z","depth":0,"parameterNumber":2,"parameterNumberName":"U-component_of_WINDS"},"data":[0,0,0,0,0,0,0,0,0,0,0,0,0,0,0,0,0,0,0,0,0,0,0,0,0,0,0,0,0,0,0,0,0,0,0,0,0,0,0,0,0,0,0,0,0,0,0,0,0,0,0,0,0,0,0,0,0,0,-1.0547,-1.0548,0,-1.0636,-1.0637,-1.0638,-1.0631,-1.0629,-1.0628,-1.0627,-1.072,-1.0724,-1.0728,0,0,0,0,0,0,0,0,0,0,0,0,0,-1.0373,-1.0376,-1.0547,-1.0548,-1.0549,-1.0635,-1.0637,-1.0638,-1.0631,-1.0629,-1.0628,-1.0626,-1.0719,-1.0724,-1.0728,0,0,0,0,0,0,0,0,0,0,0,0,0,-1.0454,-1.0377,-1.0546,-1.0556,-1.0557,-1.0635,-1.0637,-1.0638,-1.0631,-1.0629,-1.0627,-1.0625,-1.0718,-1.0723,-1.0729,-1.0803,0,0,-1.0746,-1.0748,0,0,0,0,0,0,0,0,-1.0449,-1.046,-1.0553,-1.0555,-1.0557,-1.062,-1.061,-1.0694,-1.0632,-1.0603,-1.0627,-1.0624,-1.0689,-1.0697,-1.0718,-1.0808,-1.0812,-1.0746,-1.075,-1.0752,-1.0754,0,0,0,0,0,0,0,-1.0444,-1.0456,-1.0582,-1.0555,-1.0557,-1.0556,-1.0565,-1.0626,-1.0656,-1.0606,-1.0605,-1.0616,-1.0689,-1.0712,-1.072,-1.0813,-1.0746,-1.0751,-1.0755,-1.0757,-1.0969,-1.0972,0,0,0,0,0,0,-1.0436,-1.0452,-1.0579,-1.0584,-1.0497,-1.0561,-1.0571,-1.0602,-1.0656,-1.0662,-1.0618,-1.0615,-1.0704,-1.0713,-1.0723,-1.0815,-1.0752,-1.0757,-1.0761,-1.0967,-1.097,-1.0972,0,0,0,0,0,0,-1.0432,-1.0447,-1.0575,-1.0518,-1.0534,-1.0566,-1.0601,-1.0605,-1.0628,-1.0665,-1.067,-1.0635,-1.0703,-1.0715,-1.0783,-1.0818,-1.076,-1.0765,-1.0965,-1.0968,-1.0971,-1.0999,0,0,0,0,0,0,-1.0427,-1.0446,-1.0474,-1.0519,-1.0537,-1.0634,-1.0603,-1.0608,-1.0637,-1.0635,-1.0683,-1.0689,-1.0702,-1.0775,-1.0789,-1.0825,-1.0769,-1.0962,-1.0966,-1.097,-1.0995,-1.1003,-1.1009,0,0,0,0,0,-1.0421,-1.0479,-1.0475,-1.0491,-1.0573,-1.0636,-1.0647,-1.066,-1.064,-1.0669,-1.0693,-1.0687,-1.0812,-1.0782,-1.0798,-1.0836,-1.096,-1.0965,-1.097,-1.0992,-1.1001,-1.1009,0,0,0,0,0,0,-1.0438,-1.0485,-1.0482,-1.0556,-1.0592,-1.0634,-1.0672,-1.067,-1.0713,-1.0709,-1.0725,-1.0736,-1.0804,-1.0827,-1.0793,-1.0911,-1.0883,-1.0892,-1.0894,-1.0903,-1.091,-1.0904,-1.0774,0,0,0,0,0,-1.045,-1.0497,-1.0535,-1.0596,-1.0615,-1.064,-1.0668,-1.0675,-1.0713,-1.0729,-1.0757,-1.0795,-1.0843,-1.0874,-1.092,-1.0997,-1.1008,-1.1031,-1.1038,-1.1044,-1.1052,-1.1095,-1.1106,-1.0989,-1.0989,-1.0989,0,0,-1.0477,-1.0508,-1.0536,-1.0601,-1.063,-1.0678,-1.0653,-1.0705,-1.0741,-1.0737,-1.0803,-1.0825,-1.0869,-1.0942,-1.0975,-1.0963,-1.1086,-1.105,-1.1055,-1.106,-1.1101,-1.1112,-1.1122,-1.0993,-1.0992,-1.0992,0,0,-1.055,-1.0577,-1.0632,-1.0661,-1.0704,-1.0721,-1.0734,-1.0777,-1.0791,-1.0857,-1.0855,-1.0898,-1.098,-1.1011,-1.1038,-1.1122,-1.1118,-1.1136,-1.1174,-1.1216,-1.1225,-1.1234,-1.1264,-1.1275,-1.1143,-1.1143,-1.1143,0,-1.0577,-1.0649,-1.066,-1.0713,-1.0742,-1.0739,-1.0794,-1.0822,-1.0879,-1.0899,-1.0883,-1.0986,-1.1015,-1.1095,-1.1116,-1.1137,-1.1153,-1.1131,-1.1223,-1.1231,-1.1239,-1.1269,-1.128,-1.1145,-1.1145,-1.1145,-1.1145,0,-1.0681,-1.0731,-1.077,-1.0824,-1.0857,-1.0911,-1.0931,-1.0963,-1.0967,-1.0985,-1.1053,-1.1087,-1.114,-1.1159,-1.1164,-1.1241,-1.1232,-1.1219,-1.1192,-1.1252,-1.128,-1.1291,-1.1148,-1.1147,-1.1147,-1.1146,0,0,-1.0769,-1.0828,-1.0842,-1.0867,-1.0914,-1.0953,-1.1006,-1.1057,-1.1085,-1.1124,-1.117,-1.1239,-1.1227,-1.1257,-1.1265,-1.1302,-1.1367,-1.1285,-1.1286,-1.13,-1.1455,-1.1465,-1.1478,-1.1364,-1.1366,-1.1368,-1.1451,0,-1.0848,-1.0942,-1.0954,-1.1038,-1.1085,-1.1082,-1.1129,-1.1163,-1.1182,-1.1224,-1.1244,-1.1293,-1.1274,-1.1292,-1.1328,-1.1351,-1.1398,-1.1345,-1.1409,-1.1411,-1.1399,-1.1492,-1.1503,-1.158,-1.1462,-1.1464,-1.1466,0,-1.0953,-1.0993,-1.1082,-1.1123,-1.1143,-1.1185,-1.1232,-1.1273,-1.1312,-1.1322,-1.1355,-1.1359,-1.1415,-1.1383,-1.1462,-1.1425,-1.1452,-1.1467,-1.147,-1.1478,-1.1443,-1.1504,-1.1605,-1.1617,-1.1483,-1.1481,-1.148,0,-1.1009,-1.1086,-1.115,-1.1171,-1.1219,-1.1249,-1.1271,-1.1307,-1.1337,-1.1379,-1.1398,-1.1446,-1.1473,-1.151,-1.1526,-1.1502,-1.1604,-1.1574,-1.1615,-1.1615,-1.1638,-1.1637,-1.1746,-1.1653,-1.1653,-1.1652,-1.1652,0,-1.1097,-1.1152,-1.1176,-1.1215,-1.1276,-1.1289,-1.1349,-1.137,-1.1403,-1.1446,-1.1447,-1.1488,-1.1506,-1.155,-1.1563,-1.1626,-1.1638,-1.1648,-1.1652,-1.1649,-1.1648,-1.1668,-1.1663,-1.1655,-1.1655,-1.1654,-1.1654,0,-1.1171,-1.119,-1.1259,-1.1298,-1.131,-1.1353,-1.1388,-1.1426,-1.1443,-1.1498,-1.1512,-1.1539,-1.1591,-1.161,-1.1673,-1.1682,-1.1755,-1.1753,-1.1742,-1.1743,-1.1784,-1.178,-1.1911,-1.1929,-1.1823,-1.1824,-1.1824,0,-1.1227,-1.1269,-1.1313,-1.1341,-1.1364,-1.141,-1.144,-1.1454,-1.1486,-1.1533,-1.1565,-1.1617,-1.1658,-1.1741,-1.1767,-1.1816,-1.1816,-1.1858,-1.1823,-1.1819,-1.1818,-1.1815,-1.182,-1.1865,-1.1866,-1.1867,-1.1868,0,-1.1323,-1.133,-1.1373,-1.1419,-1.1455,-1.1492,-1.1528,-1.1552,-1.1571,-1.1607,-1.1659,-1.1691,-1.1755,-1.1806,-1.1856,-1.1879,-1.1877,-1.1878,-1.1891,-1.1889,-1.1882,-1.1887,-1.1761,-1.1876,-1.1875,-1.1874,-1.1874,-1.1874,-1.1391,-1.1428,-1.1465,-1.1513,-1.1541,-1.1575,-1.1612,-1.1634,-1.1677,-1.173,-1.1735,-1.1792,-1.183,-1.1896,-1.1921,-1.1966,-1.1954,-1.1972,-1.1977,-1.1981,-1.1985,-1.1873,-1.1975,-1.1974,-1.1974,-1.1974,-1.1974,0,-1.1489,-1.1512,-1.1556,-1.1606,-1.1643,-1.1636,-1.1676,-1.1708,-1.1758,-1.1793,-1.1833,-1.1894,-1.1943,-1.1972,-1.2022,-1.2052,-1.2053,-1.2065,-1.2064,-1.2069,-1.1991,-1.1976,-1.2064,-1.2064,-1.2064,-1.2064,-1.2064,-1.2064,-1.1544,-1.1607,-1.1618,-1.1695,-1.1717,-1.1772,-1.1795,-1.1827,-1.1854,-1.1921,-1.1962,-1.198,-1.2013,-1.2065,-1.211,-1.2117,-1.2136,-1.215,-1.2156,-1.2084,-1.2074,-1.2066,-1.2052,-1.2153,-1.2153,-1.223,-1.2231,-1.2231]},{"header":{"parameterUnit":"m.s-1","parameterCategory":1,"la1":30.2991,"la2":30.254,"lo1":-89.0895,"lo2":-89.0444,"dy":0.0017,"dx":0.0017,"nx":28,"ny":28,"refTime":"2025-11-22T03:00:00:Z","depth":0,"parameterNumber":3,"parameterNumberName":"V-component_of_WINDS"},"data":[0,0,0,0,0,0,0,0,0,0,0,0,0,0,0,0,0,0,0,0,0,0,0,0,0,0,0,0,0,0,0,0,0,0,0,0,0,0,0,0,0,0,0,0,0,0,0,0,0,0,0,0,0,0,0,0,0,0,-4.1016,-4.1016,0,-4.1074,-4.1074,-4.1075,-4.1018,-4.1016,-4.1013,-4.1011,-4.1066,-4.107,-4.1073,0,0,0,0,0,0,0,0,0,0,0,0,0,-4.0851,-4.0855,-4.1016,-4.1016,-4.1017,-4.1074,-4.1074,-4.1075,-4.1018,-4.1016,-4.1013,-4.101,-4.1065,-4.1069,-4.1074,0,0,0,0,0,0,0,0,0,0,0,0,0,-4.0917,-4.0856,-4.1016,-4.0996,-4.0995,-4.1074,-4.1074,-4.1075,-4.1019,-4.1016,-4.1012,-4.1009,-4.1064,-4.1069,-4.1074,-4.1174,0,0,-4.1091,-4.1093,0,0,0,0,0,0,0,0,-4.0914,-4.0923,-4.0998,-4.0997,-4.0996,-4.1035,-4.1037,-4.1108,-4.102,-4.101,-4.1011,-4.1007,-4.1058,-4.1064,-4.1082,-4.1177,-4.1179,-4.1091,-4.1094,-4.1097,-4.1098,0,0,0,0,0,0,0,-4.0909,-4.0921,-4.1038,-4.0999,-4.0998,-4.0982,-4.0988,-4.105,-4.1052,-4.101,-4.1006,-4.1014,-4.1057,-4.1077,-4.1083,-4.118,-4.1091,-4.1096,-4.1099,-4.1101,-4.136,-4.1363,0,0,0,0,0,0,-4.0907,-4.0917,-4.1037,-4.104,-4.0946,-4.0988,-4.0995,-4.1026,-4.1051,-4.1052,-4.1017,-4.1011,-4.107,-4.1077,-4.1085,-4.1204,-4.1097,-4.1102,-4.1105,-4.1356,-4.1361,-4.1365,0,0,0,0,0,0,-4.0904,-4.0919,-4.1034,-4.0978,-4.0991,-4.0995,-4.103,-4.1029,-4.1049,-4.1056,-4.1056,-4.1037,-4.1067,-4.1077,-4.1153,-4.1205,-4.1104,-4.1109,-4.1352,-4.1357,-4.1363,-4.1442,0,0,0,0,0,0,-4.09,-4.0918,-4.0957,-4.0979,-4.0995,-4.1103,-4.1034,-4.1032,-4.1059,-4.1052,-4.1075,-4.1076,-4.1065,-4.1145,-4.1158,-4.121,-4.1113,-4.1347,-4.1354,-4.1361,-4.1435,-4.145,-4.1463,0,0,0,0,0,-4.0894,-4.0976,-4.0959,-4.0974,-4.1044,-4.1106,-4.1115,-4.1102,-4.1063,-4.1102,-4.1107,-4.1075,-4.1197,-4.1153,-4.1167,-4.1222,-4.1344,-4.1352,-4.136,-4.1429,-4.1447,-4.1462,0,0,0,0,0,0,-4.0958,-4.0979,-4.096,-4.1052,-4.1078,-4.1096,-4.1145,-4.1122,-4.1158,-4.115,-4.1132,-4.1138,-4.1218,-4.1227,-4.1178,-4.132,-4.1264,-4.1275,-4.1311,-4.1328,-4.1342,-4.1338,-4.1117,0,0,0,0,0,-4.0984,-4.1034,-4.1048,-4.1128,-4.1142,-4.1142,-4.1168,-4.1157,-4.1182,-4.1192,-4.1202,-4.1227,-4.1271,-4.13,-4.1341,-4.1436,-4.144,-4.148,-4.1494,-4.1505,-4.1516,-4.1566,-4.1584,-4.1392,-4.1392,-4.1391,0,0,-4.1035,-4.1053,-4.1085,-4.1141,-4.116,-4.1211,-4.1151,-4.1208,-4.1245,-4.12,-4.1273,-4.1281,-4.1307,-4.1394,-4.1432,-4.1404,-4.157,-4.1516,-4.1525,-4.1529,-4.1577,-4.1595,-4.1611,-4.1397,-4.1396,-4.1395,0,0,-4.1156,-4.1175,-4.1244,-4.1264,-4.1294,-4.1293,-4.1309,-4.1331,-4.1336,-4.1409,-4.1376,-4.1419,-4.1495,-4.1515,-4.1536,-4.1665,-4.1637,-4.1678,-4.175,-4.18,-4.1815,-4.1828,-4.1874,-4.1891,-4.1688,-4.1689,-4.1689,0,-4.1217,-4.1294,-4.1281,-4.1341,-4.1366,-4.133,-4.1398,-4.1418,-4.1459,-4.1476,-4.1445,-4.154,-4.1555,-4.1645,-4.1676,-4.1694,-4.1712,-4.1676,-4.1814,-4.1828,-4.184,-4.1883,-4.1901,-4.1693,-4.1693,-4.1692,-4.1692,0,-4.1367,-4.1421,-4.1473,-4.1515,-4.1546,-4.161,-4.1605,-4.1638,-4.1624,-4.1626,-4.17,-4.1717,-4.176,-4.1781,-4.1767,-4.1869,-4.1851,-4.1817,-4.176,-4.1863,-4.1904,-4.192,-4.17,-4.1699,-4.1697,-4.1696,0,0,-4.153,-4.1565,-4.1584,-4.1603,-4.1633,-4.1674,-4.1735,-4.178,-4.1808,-4.1837,-4.1888,-4.1953,-4.1922,-4.1945,-4.1933,-4.1977,-4.2078,-4.1938,-4.1938,-4.1963,-4.2191,-4.2217,-4.2236,-4.206,-4.2063,-4.2066,-4.2189,0,-4.1652,-4.1761,-4.1751,-4.1853,-4.1903,-4.1869,-4.1922,-4.1946,-4.195,-4.1991,-4.1994,-4.2041,-4.1997,-4.2011,-4.2052,-4.2057,-4.2124,-4.2048,-4.2106,-4.2108,-4.2101,-4.2257,-4.2284,-4.24,-4.2205,-4.2208,-4.221,0,-4.1808,-4.1845,-4.1954,-4.1977,-4.1997,-4.2046,-4.2085,-4.2126,-4.2151,-4.2151,-4.2177,-4.2157,-4.2218,-4.216,-4.2243,-4.2192,-4.2215,-4.2221,-4.2225,-4.223,-4.2165,-4.2266,-4.2437,-4.2454,-4.2234,-4.2232,-4.2231,0,-4.1916,-4.1992,-4.2067,-4.2084,-4.2113,-4.2148,-4.2161,-4.2184,-4.2211,-4.2245,-4.2262,-4.2303,-4.2325,-4.2356,-4.2347,-4.2306,-4.2432,-4.2373,-4.2432,-4.2433,-4.246,-4.2458,-4.2637,-4.2475,-4.2475,-4.2475,-4.2474,0,-4.2053,-4.2121,-4.2116,-4.2162,-4.2236,-4.2224,-4.2297,-4.2306,-4.2326,-4.2372,-4.2345,-4.2388,-4.2374,-4.2417,-4.241,-4.2479,-4.2489,-4.249,-4.2487,-4.2493,-4.2492,-4.2507,-4.2499,-4.2479,-4.2478,-4.2478,-4.2477,0,-4.2186,-4.2186,-4.2265,-4.2286,-4.2293,-4.2347,-4.2364,-4.2407,-4.2408,-4.2467,-4.248,-4.2482,-4.2531,-4.2525,-4.2579,-4.2574,-4.2661,-4.2649,-4.2653,-4.265,-4.2709,-4.2704,-4.2903,-4.2928,-4.2751,-4.2753,-4.2754,0,-4.2273,-4.2325,-4.2352,-4.2382,-4.2398,-4.2446,-4.2474,-4.2463,-4.2493,-4.2527,-4.2565,-4.2612,-4.2648,-4.2727,-4.2733,-4.2773,-4.2762,-4.2829,-4.2768,-4.2771,-4.2763,-4.276,-4.2765,-4.2841,-4.2843,-4.2844,-4.2846,0,-4.2428,-4.2426,-4.2468,-4.2511,-4.2546,-4.2579,-4.2608,-4.2634,-4.2626,-4.2661,-4.2711,-4.274,-4.2795,-4.2842,-4.288,-4.2892,-4.2868,-4.2865,-4.2881,-4.2886,-4.2887,-4.2887,-4.2686,-4.286,-4.2859,-4.2858,-4.2857,-4.2856,-4.2541,-4.2585,-4.2612,-4.266,-4.2681,-4.271,-4.2751,-4.2759,-4.2801,-4.2847,-4.2837,-4.2894,-4.2917,-4.2967,-4.2983,-4.3027,-4.3002,-4.3025,-4.3031,-4.3036,-4.3043,-4.288,-4.3033,-4.3033,-4.3033,-4.3032,-4.3032,0,-4.2694,-4.271,-4.2755,-4.2798,-4.2836,-4.2811,-4.2842,-4.2875,-4.2926,-4.2951,-4.2988,-4.3046,-4.309,-4.31,-4.3142,-4.3175,-4.3165,-4.3186,-4.3183,-4.3187,-4.3063,-4.3045,-4.3194,-4.3194,-4.3194,-4.3194,-4.3194,-4.3194,-4.2779,-4.2852,-4.2853,-4.2937,-4.2951,-4.3008,-4.3028,-4.3054,-4.3074,-4.314,-4.3178,-4.3184,-4.3203,-4.3246,-4.3286,-4.3287,-4.3304,-4.333,-4.3327,-4.3211,-4.3195,-4.318,-4.3163,-4.3334,-4.3334,-4.3447,-4.3448,-4.3449]}]]